Preview of NWS' New Version of Forecast
This preview is not operational and should not be used for support decisions.

Regional Weather Roundup (RWR)

Issued by National Weather Service (NWS)

                            
000
ASUS44 KMEG 220910
RWRTN 
TENNESSEE HOURLY STATE WEATHER ROUNDUP
NATIONAL WEATHER SERVICE MEMPHIS TN
400 AM CDT WED MAY 22 2019

TNZ002-004-019-021-049-052-054-088>092-221000-
WEST TENNESSEE
  
CITY           SKY/WX    TMP DP  RH WIND       PRES   REMARKS
MEMPHIS INTL   CLOUDY    70  65  84 NW8       29.85R                  
NWS MEMPHIS      N/A     78 N/A N/A MISG        N/A                   
JACKSON        MOCLDY    76  66  71 S10G17    29.87R                  
DYERSBURG      LGT RAIN  66  63  90 N5        29.88R                  
SOMERVILLE     MOCLDY    77  66  69 S8G17     29.85R                  
COVINGTON      CLOUDY    66  64  94 N7        29.87R                  
UNION CITY     CLOUDY    66  63  88 CALM      29.88R FOG              
BOLIVAR        CLEAR     75  66  73 S9G17     29.86R                  
PARIS          CLOUDY    75  66  73 SW7G14    29.86S                  
LEXINGTON      PTCLDY    75  66  73 S10G18    29.87R                  
SELMER         CLEAR     73  66  78 S9G17     29.88S                  
SAVANNAH       PTCLDY    75  68  78 S15       29.88S                  
$$

TNZ008-025-027-028-033-062-065-066-221000-
NORTH MIDDLE TENNESSEE
  
CITY           SKY/WX    TMP DP  RH WIND       PRES   REMARKS
NASHVILLE      FAIR      75  62  64 S13       29.92S                  
DICKSON        SUNNY     73  64  73 S12       29.88S                  
PORTLAND       MOCLDY    73  64  73 S10       29.91F                  
CLARKSVILLE    FAIR      75  63  66 S9        29.87R                  
LEBANON        SUNNY     75  63  64 S12       29.92S                  
SMYRNA         FAIR      72  63  73 S8        29.94S                  
MURFREESBORO   SUNNY     72  63  73 S10       29.92F                  
COOKEVILLE     CLEAR     70  63  78 S6        29.99R                  
LIVINGSTON     SUNNY     73  61  64 S9        29.98S                  
CROSSVILLE     FAIR      65  59  81 S5        30.06R                  
ROCKWOOD       MOSUNNY   64  59  82 S6        30.05R                  
$$

TNZ061-075-076-078-094-096-097-221000-
SOUTH MIDDLE TENNESSEE
  
CITY           SKY/WX    TMP DP  RH WIND       PRES   REMARKS
LAWRENCEBURG   MOSUNNY   70  64  83 S9        29.94S                  
LEWISBURG      SUNNY     70  63  78 S6        29.94S                  
FAYETTEVILLE   CLEAR     68  61  77 SE9       29.97F                  
TULLAHOMA      CLEAR     68  63  83 SE7       29.98F                  
WINCHESTER     CLEAR     68  61  77 SE5       30.00R                  
MCMINNVILLE    CLEAR     68  61  77 CALM      29.98S                  
COLUMBIA       CLEAR     73  68  83 S9G16     29.90F                  
SHELBYVILLE    CLEAR     72  61  68 SE9       29.96F                  
$$

TNZ017-018-042-046-047-221000-
NORTHEAST TENNESSEE
  
CITY           SKY/WX    TMP DP  RH WIND       PRES   REMARKS
TRI CITIES     FAIR      60  55  83 N3        30.09R                  
ELIZABETHTON   FAIR      68  55  64 E8        30.11R                  
GREENEVILLE    SUNNY     66  57  72 CALM      30.07R                  
$$

TNZ012-013-036-069-073-074-221000-
CENTRAL EAST TENNESSEE
  
CITY           SKY/WX    TMP DP  RH WIND       PRES   REMARKS
KNOXVILLE      FAIR      66  60  81 NW3       30.02R                  
OAK RIDGE      FAIR      65  59  81 CALM      30.05R                  
DOWNTOWN KNOXV CLEAR     63  63 100 CALM      30.04R                  
GATLINBURG     CLEAR     63  59  88 CALM      30.03R                  
MORRISTOWN     CLEAR     64  57  77 NE3       30.05R                  
JACKSBORO      MOCLDY    59  57  94 CALM      30.08R                  
$$

TNZ083-085-099-221000-
SOUTHEAST TENNESSEE
  
CITY           SKY/WX    TMP DP  RH WIND       PRES   REMARKS
CHATTANOOGA    MOCLDY    71  67  87 CALM      30.02R                  
DAYTON         CLOUDY    68  66  94 CALM      30.01S                  
$$

SKY/WX REPORTED AS FAIR MEANS FEW OR NO CLOUDS BELOW
12 THOUSAND FEET.